STARLINK-5723 (55606 NORAD) Tracking and Keplerian Element Data

This shows tracking and keplerian element data for the satellite.

Feedback or suggestion? Click here.




ElementValue
Catalog55606
NameSTARLINK-5723
Epoch Orbit318
Epoch Day63.25001157
Epoch Year2023
RAAN233.0941
Inclination42.9983
Eccentricity0.0013937
Argument of Perigee73.2974
Mean Anonmoly209.3109
Mean Motion15.92599437
Decay Rate0.00353499
L11 55606U 23020AP 23063.25001157 .00353499 55631-4 99267-3 0 9997
L22 55606 42.9983 233.0941 0013937 73.2974 209.3109 15.92599437 3186



Live tracking and technical data element details for STARLINK-5723 (NORAD 55606). STARLINK-5723 can be tracked NOW for your location showing map with azimuth and elevation plus other details from your city location.







IsCatalogInMostPopularTable: catalog: 55606, numindb: -1

Insert: records affected: 1


GetName: 55606 STARLINK-5723

Hit Count: inserted at: Tue, 28 Mar 2023 02:53:11 GMT